Regional Weather Roundup
Issued by NWS

Home | Current Version | Previous Version | Text Only | Print | Product List | Glossary On
Versions: 1 2 3 4 5 6 7 8 9 10 11 12 13 14 15 16 17 18 19 20 21 22 23 24 25 26 27 28 29 30 31 32 33 34 35 36 37 38 39 40 41 42 43 44 45 46 47 48 49 50
872
ASUS43 KDMX 261606
RWRIA

WEATHER ROUNDUP FOR IOWA
NATIONAL WEATHER SERVICE DES MOINES IA
1100 AM CDT THU APR 26 2018

NOTE: "FAIR" INDICATES FEW OR NO CLOUDS BELOW 12,000 FEET WITH NO
SIGNIFICANT WEATHER AND/OR OBSTRUCTIONS TO VISIBILITY.

* - THESE STATIONS ARE NOT NWS STATIONS...THUS NOT UNDER NWS
QUALITY CONTROL.  THEY ALSO DO NOT REPORT WEATHER SUCH
AS PRECIPITATION OR FOG.

IAZ001>003-012>014-020>022-031>034-043>046-261700-
   NORTHWEST IOWA

CITY           SKY/WX    TMP DP  RH WIND       PRES   REMARKS
CARROLL *      MOSUNNY   63  32  31 W20       29.93S
CHEROKEE *     MOSUNNY   59  38  45 W13       29.92R
DENISON *      MOSUNNY   59  36  41 SW13G21   29.96R
LE MARS *      PTSUNNY   55  37  50 NW10G17   29.93R
ORANGE CITY *  CLOUDY    57  41  54 NW13G18   29.93R
SHELDON *      CLOUDY    55  37  50 NW20G28   29.92R
SIOUX CITY     MOSUNNY   58  38  47 NW12      29.93S
SPENCER        MOSUNNY   59  37  44 W17       29.91R
STORM LAKE *   MOSUNNY   61  36  39 SW20G28   29.91S
$$

IAZ055>058-069>071-079>083-090>094-261700-
   SOUTHWEST IOWA

CITY           SKY/WX    TMP DP  RH WIND       PRES   REMARKS
ATLANTIC *     PTSUNNY   61  32  33 SW14      29.96F
AUDUBON *      MOSUNNY   61  30  31 SW14      29.96S
CLARINDA *     CLOUDY    59  37  44 W8        30.01S
COUNCIL BLFS * MOSUNNY   55  39  54 SW12      29.97S
CRESTON *      CLOUDY    59  34  38 W9        29.99R
HARLAN  *      MOSUNNY   61  34  36 SW14      29.98S
LAMONI         CLOUDY    60  32  34 SW5       29.97S
RED OAK *      CLOUDY    61  34  36 SW9       29.98S
SHENANDOAH *   CLOUDY    59  41  51 SW8       30.00S
$$

IAZ047>049-059>061-072>074-084-261700-
   CENTRAL IOWA

CITY           SKY/WX    TMP DP  RH WIND       PRES   REMARKS
AMES           MOSUNNY   63  33  32 NW14      29.94F
ANKENY *       CLOUDY    61  34  36 VRB7G15   29.96F
BOONE *        MOSUNNY   61  34  36 W12G18    29.93F
CHARITON *     CLOUDY    63  30  29 W7G16     29.96S
DES MOINES     CLOUDY    62  36  37 W10       29.96S
GRINNELL*      CLOUDY    62  31  31 W10       29.96S
KNOXVILLE *    CLOUDY    61  34  36 W8G14     29.95S
MARSHALLTOWN   CLOUDY    62  35  36 W13       29.93F
NEWTON *       CLOUDY    63  30  29 W10G17    29.95F
PELLA *        CLOUDY    61  34  36 W8        29.98R
PERRY *        FAIR      62  26  25 SW13G18   29.94F
$$

IAZ004>006-015-016-023>025-035-036-261700-
   NORTH CENTRAL IOWA

CITY           SKY/WX    TMP DP  RH WIND       PRES   REMARKS
ALGONA *       SUNNY     61  37  41 SW16      29.91S
CLARION *      CLOUDY    61  32  33 W20G25    29.92F
ESTHERVILLE    MOSUNNY   55  40  56 W17       29.89S
FORT DODGE *   PTSUNNY   62  32  32 W17G25    29.92S
MASON CITY     CLOUDY    59  36  42 SW16      29.92S
FOREST CITY *  FAIR      59  36  41 W12G18    29.91S
WEBSTER CITY * PTSUNNY   63  32  31 SW20G25   29.90F
IOWA FALLS *   FAIR      62  34  34 SW15      29.94S
$$

IAZ007>011-017>019-026>030-037>042-050>054-066-261700-
   NORTHEAST IOWA

CITY           SKY/WX    TMP DP  RH WIND       PRES   REMARKS
CEDAR RAPIDS   FAIR      62  33  33 W9        29.94S
CHARLES CITY * FAIR      59  36  41 SW13      29.92S
CLINTON *      FAIR      59  36  42 S9        29.96S
DECORAH *      FAIR      59  34  38 W10G17    29.91S
DUBUQUE        FAIR      56  36  47 SW8       29.94S
MONTICELLO *   FAIR      61  34  36 MISG      29.94S
OELWEIN *      FAIR      61  34  36 W16       29.93F
WATERLOO       FAIR      62  35  36 W13G20    29.93S
$$

IAZ064-065-067-068-078-261700-
   EAST CENTRAL IOWA

CITY           SKY/WX    TMP DP  RH WIND       PRES   REMARKS
DAVENPORT        N/A     59  37  44 S7        29.97F
IOWA CITY      FAIR      61  36  39 MISG      29.97S
MT. PLEASANT * CLOUDY    63  32  31 SW7       29.96F
MUSCATINE *    FAIR      61  36  39 VRB3      29.96F
QUAD CITIES    FAIR      60  37  42 VRB3      29.95S
$$

IAZ062-063-075>077-085>089-095>099-261700-
   SOUTHEAST IOWA

CITY           SKY/WX    TMP DP  RH WIND       PRES   REMARKS
BURLINGTON     CLOUDY    61  39  44 S8        29.96S
FAIRFIELD *    CLOUDY    63  30  29 SW7       29.96S
FORT MADISON * CLOUDY    61  37  41 S3        29.97S
KEOKUK *       CLOUDY    63  37  39 CALM      29.96F
OSKALOOSA *    FAIR      64  30  28 W10       29.97R
CENTERVILLE *  FAIR      63  28  27 CALM      29.98S
OTTUMWA        CLOUDY    63  32  31 W7        29.96S
WASHINGTON *   CLOUDY    61  34  36 W7        29.97S
$$

ABBREVIATIONS USED IN REMARKS
   TC - TEMPERATURES IN CELSIUS
  WCI - WIND CHILL INDEX
   HX - HEAT INDEX
  VSB - VISIBILITY
$$





USA.gov is the U.S. government's official web portal to all federal, state and local government web resources and services.